User: anonymous   Login
Location: Niedergestelen
(46.3129°N, 7.7822°E)
Time: 08:32:20
(UTC+00:00)
Language:

FENGYUN 1C DEB - Orbit

View from above orbital plane
View from above orbital plane
View from above satellite
View from above satellite

Ground track
Ground track

The orbit data is extracted from the following two-line orbital elements,

1 31341U 99025BQV 21166.77824458  .00000513  00000-0  19931-3 0  9993
2 31341  99.5787 358.5367 0074269  67.2592 358.4781 14.33289927739996
Epoch (UTC): 15 June 2021 18:40:40
Eccentricity: 0.0074269
inclination: 99.5787°
perigee height: 727 km
apogee height: 834 km
right ascension of ascending node: 358.5367°
argument of perigee: 67.2592°
revolutions per day: 14.33289927
mean anomaly at epoch: 358.4781°
orbit number at epoch: 73999

The dashed part of the orbit path shows where the satellite is in the earth's shadow,  

DLR